Location: Borojevi?i
(45.0486°N, 16.2297°E)
Time: 07:32:57
(UTC+00:00)

Cosmos 2251 Rocket - Pass Details

Date: 08 August 2020
Orbit: 764 x 792 km, 74.0° (Epoch: 26 September)

Event Time Altitude Azimuth Distance (km) Brightness Sun altitude
Rises 19:15:49 0° 214° (SSW) 3,222 6.7 -10.7°
Reaches altitude 10° 19:18:14 10° 219° (SW) 2,303 6.0 -11.0°
Maximum altitude 19:23:20 52° 296° (WNW) 952 4.4 -11.7°
Drops below altitude 10° 19:28:30 10° 13° (NNE) 2,334 6.3 -12.5°
Sets 19:30:59 0° 18° (NNE) 3,271 7.0 -12.8°
